Pierceville, KS

2:31 AM CDT on August 29, 2016 (GMT -0500)
Garden City Regional

Weather History for KGCK - October, 2013

Change the Weather History Date:

Wednesday, October 9, 2013

  Actual Average Record
Temperature  
Mean Temperature 68 °F 58 °F  
Max Temperature 85 °F 72 °F 91 °F (1965)
Min Temperature 51 °F 44 °F 23 °F (2000)
Degree Days  
Heating Degree Days 0 8  
Month to date heating degree days 39 61  
Since 1 July heating degree days 57 133  
Cooling Degree Days 3 1  
Month to date cooling degree days 16 13  
Year to date cooling degree days 1588 1291  
Growing Degree Days 18 (Base 50)    
Moisture  
Dew Point 39 °F    
Average Humidity 40    
Maximum Humidity 63    
Minimum Humidity 17    
Precipitation  
Precipitation 0.00 in 0.05 in 1.35 in (1961)
Month to date precipitation 0.00 0.45  
Year to date precipitation 12.59 17.57  
Sea Level Pressure  
Sea Level Pressure 29.79 in    
Wind  
Wind Speed 17 mph (SSE)    
Max Wind Speed 31 mph    
Max Gust Speed 39 mph    
Visibility 10 miles    
Events      
T = Trace of Precipitation, MM = Missing Value Source: NWS Daily Summary

Daily Weather History Graph

Daily Weather History Graph

Search for Another Location

Airport or City:

Trip Planner

Search our weather history database for the weather conditions in past years. The results will help you decide how hot, cold, wet, or windy it might be!

Date:

Astronomy

Oct. 09, 2013 Rise Set
Actual Time 7:46 AM CDT 7:13 PM CDT
Civil Twilight 7:19 AM CDT 7:39 PM CDT
Nautical Twilight 6:49 AM CDT 8:10 PM CDT
Astronomical Twilight 6:18 AM CDT 8:40 PM CDT
Moon 12:39 PM CDT (10/9) 10:53 PM CDT (10/9)
Length of Visible Light 12h 20m
Length of Day
11h 27m
Waxing Crescent, 25% of the Moon is Illuminated
Oct 9
Waxing Crescent
Oct 11
First Quarter
Oct 18
Full
Oct 26
Last Quarter
Nov 3
New

Hourly Weather History & Observations

Time (CDT) Temp. Dew Point Humidity Pressure Visibility Wind Dir Wind Speed Gust Speed Precip Events Conditions
12:54 AM 61.0 °F 39.0 °F 44% 29.75 in 10.0 mi South 13.8 mph 23.0 mph N/A   Clear
1:54 AM 59.0 °F 37.9 °F 46% 29.75 in 10.0 mi SSE 16.1 mph - N/A   Clear
2:54 AM 57.0 °F 37.9 °F 49% 29.76 in 10.0 mi SSE 12.7 mph - N/A   Clear
3:54 AM 55.0 °F 39.0 °F 55% 29.77 in 10.0 mi SSE 10.4 mph - N/A   Clear
4:54 AM 53.1 °F 39.9 °F 61% 29.77 in 10.0 mi SSE 12.7 mph - N/A   Clear
5:54 AM 52.0 °F 39.9 °F 63% 29.78 in 10.0 mi SSE 11.5 mph - N/A   Clear
6:54 AM 51.1 °F 39.9 °F 66% 29.79 in 10.0 mi SSE 10.4 mph - N/A   Clear
7:54 AM 51.1 °F 39.9 °F 66% 29.81 in 10.0 mi SSE 13.8 mph - N/A   Clear
8:54 AM 55.0 °F 39.9 °F 57% 29.82 in 10.0 mi SSE 12.7 mph - N/A   Clear
9:54 AM 62.1 °F 39.0 °F 43% 29.84 in 10.0 mi South 11.5 mph 23.0 mph N/A   Clear
10:54 AM 68.0 °F 39.0 °F 35% 29.84 in 10.0 mi SSW 17.3 mph - N/A   Clear
11:54 AM 73.0 °F 39.0 °F 29% 29.82 in 10.0 mi South 16.1 mph - N/A   Clear
12:54 PM 78.1 °F 39.0 °F 25% 29.81 in 10.0 mi South 17.3 mph 25.3 mph N/A   Clear
1:54 PM 82.0 °F 39.0 °F 22% 29.77 in 10.0 mi South 18.4 mph 26.5 mph N/A   Clear
2:54 PM 84.0 °F 37.9 °F 19% 29.75 in 10.0 mi South 21.9 mph 31.1 mph N/A   Clear
3:54 PM 84.9 °F 37.9 °F 19% 29.75 in 10.0 mi South 21.9 mph 33.4 mph N/A   Clear
4:54 PM 84.9 °F 35.1 °F 17% 29.75 in 10.0 mi South 28.8 mph 35.7 mph N/A   Clear
5:54 PM 82.0 °F 36.0 °F 19% 29.75 in 10.0 mi South 27.6 mph 34.5 mph N/A   Clear
6:54 PM 77.0 °F 37.0 °F 24% 29.78 in 10.0 mi South 19.6 mph 28.8 mph N/A   Clear
7:54 PM 72.0 °F 39.0 °F 30% 29.80 in 10.0 mi SSE 16.1 mph - N/A   Clear
8:54 PM 69.1 °F 37.9 °F 32% 29.82 in 10.0 mi SSE 19.6 mph 25.3 mph N/A   Clear
9:54 PM 66.9 °F 39.9 °F 37% 29.82 in 10.0 mi SSE 19.6 mph 28.8 mph N/A   Clear
10:54 PM 64.9 °F 44.1 °F 47% 29.83 in 10.0 mi SSE 19.6 mph 27.6 mph N/A   Clear
11:54 PM 64.0 °F 44.1 °F 48% 29.83 in 10.0 mi SSE 17.3 mph - N/A   Mostly Cloudy